Theta_e
312 311 309 311 312 311 311 310 310 311 313 318 319 323 321 321 322 324 324 327 328 328 327 327 326 325 322 319 316 314 312 310 310 309 308 309 310 309 308 307 306 305 303 303
311 314 313 312 313 313 313 311 311 310 309 316 317 318 318 314 322 323 322 324 326 327 325 324 324 322 320 319 317 314 312 310 310 309 308 309 310 309 308 307 305 304 303 302
315 314 313 313 313 311 311 311 312 311 311 314 315 316 317 316 312 313 317 320 324 326 326 323 322 320 319 319 318 316 313 311 310 309 309 309 309 309 308 307 305 304 303 302
312 312 312 312 313 310 312 310 311 311 313 316 313 317 310 313 314 310 312 318 321 323 325 323 321 319 318 317 318 317 315 311 310 310 309 308 309 309 309 308 306 304 303 301
311 312 312 313 313 311 310 310 310 311 310 309 309 310 310 309 314 314 311 309 317 320 321 323 320 319 318 317 318 317 315 311 311 310 309 310 310 310 309 308 306 305 303 302
310 310 311 312 311 311 309 310 308 308 309 311 309 310 309 307 311 313 312 312 309 316 319 321 320 318 317 315 315 315 314 311 311 310 311 311 310 310 308 307 306 305 303 303
308 311 310 310 312 310 309 308 309 310 309 313 308 307 310 308 310 311 310 309 308 314 317 316 315 314 313 313 314 314 312 311 310 310 310 309 308 308 308 307 306 304 304 304
309 308 311 310 311 312 310 309 309 310 311 308 307 311 312 309 310 308 307 305 306 313 314 316 315 314 313 313 313 312 311 311 310 310 309 309 309 307 306 305 304 304 304 304
308 308 310 310 309 309 310 311 308 307 306 307 306 305 304 308 310 309 309 310 311 312 313 313 311 311 311 311 312 312 311 310 309 308 307 307 306 306 305 305 304 304 303 303
307 308 308 310 309 308 308 306 309 306 312 312 308 306 309 306 308 310 310 310 310 310 310 310 310 310 310 311 311 310 310 309 307 306 305 305 305 304 304 303 303 303 302 302
305 305 306 308 309 308 307 308 305 305 306 311 307 307 304 306 307 309 309 308 309 309 308 307 308 309 310 310 310 309 308 307 306 305 305 304 303 303 303 303 301 301 299 298
304 303 306 306 306 306 306 306 304 307 307 303 302 306 304 305 304 306 307 307 307 306 306 305 306 308 309 309 308 308 307 306 305 305 304 303 302 301 300 299 297 296 294 291
304 303 304 305 306 305 306 306 305 303 303 305 306 306 303 304 307 307 306 305 305 303 301 301 302 304 306 306 306 306 305 304 304 303 302 300 299 298 295 292 290 290 290 290
304 302 304 305 304 303 306 304 305 304 304 305 304 304 303 303 308 307 306 304 302 300 300 299 299 299 301 302 303 303 303 303 302 301 299 297 294 292 290 290 290 289 289 288
303 305 302 302 301 301 302 302 302 302 305 307 308 303 303 301 299 305 304 302 301 300 299 298 297 295 297 299 300 301 300 300 299 297 295 291 290 290 290 289 289 288 287 287
301 304 302 304 302 300 301 300 299 300 302 302 303 304 301 301 301 303 304 302 301 299 298 297 295 295 294 296 296 297 296 295 295 291 290 290 290 289 288 288 287 287 287 286
302 302 302 305 303 304 307 305 302 301 300 302 303 303 303 302 301 302 303 302 301 299 297 296 295 293 293 294 295 294 293 291 290 290 290 289 289 288 287 287 286 286 286 286
301 300 300 303 304 309 307 306 306 303 302 300 301 301 302 300 301 302 301 300 299 298 297 295 293 292 293 293 293 291 290 290 290 290 289 288 287 287 287 286 286 286 285 285
298 301 303 306 307 307 308 307 306 306 307 304 303 301 302 301 301 302 300 300 299 298 297 295 293 292 292 291 290 290 290 290 289 289 288 287 287 286 286 286 285 285 285 285
299 299 303 304 308 312 308 306 304 305 307 305 303 301 301 301 303 301 299 298 297 297 294 292 292 291 290 290 290 290 289 289 289 288 287 286 286 286 285 285 285 285 284 284
305 302 304 304 305 305 304 304 303 309 306 305 303 301 300 301 299 298 297 296 295 293 292 291 290 289 290 290 290 289 289 289 288 287 286 286 285 285 285 284 284 284 284 284
306 306 304 302 305 308 302 304 306 304 303 304 303 301 300 299 299 298 296 294 291 289 290 289 288 289 289 289 289 289 288 287 287 286 286 285 285 284 284 284 284 284 283 283
306 306 306 305 306 303 300 303 301 301 303 302 302 301 299 299 297 295 293 291 289 289 288 289 288 288 288 289 289 288 287 286 286 285 285 284 284 284 284 283 283 283 282 282
303 302 305 305 304 304 302 300 299 300 301 301 300 300 298 298 296 294 291 288 287 287 288 288 288 287 287 288 287 287 286 286 285 285 284 284 283 283 283 283 282 282 282 282
302 301 304 305 304 303 302 300 300 299 300 301 299 298 298 297 295 292 290 288 288 288 288 288 287 286 286 286 286 286 286 285 285 284 283 283 283 283 282 282 282 281 282 282
301 303 303 304 303 303 302 302 301 300 300 300 299 298 296 296 295 292 290 289 289 288 288 288 287 286 286 286 286 285 285 284 284 283 283 283 283 282 282 281 281 281 281 282
Wind_Speed
4 5 1 4 1 1 1 0 3 3 3 4 6 7 8 7 5 5 8 8 8 10 9 20 25 29 30 31 29 26 24 23 22 20 18 16 14 11 9 6 4 3 2 2
5 2 2 4 3 3 2 1 3 5 3 4 1 10 5 6 8 11 9 9 10 6 7 14 23 29 33 33 30 28 25 24 21 20 19 16 15 11 9 7 5 4 3 2
2 4 5 2 1 2 1 3 3 4 4 0 4 5 6 5 3 5 9 8 8 12 11 9 16 22 27 36 37 33 28 26 22 19 17 13 14 9 10 9 7 5 3 3
2 4 4 3 2 1 1 1 2 3 3 4 2 4 6 6 7 7 12 10 11 12 10 9 15 19 27 27 35 33 30 26 24 20 19 17 18 13 11 10 8 6 4 3
5 6 6 2 1 1 5 4 2 2 3 2 2 3 7 0 9 9 13 10 12 14 12 12 16 19 22 29 37 33 27 26 22 21 18 16 15 12 8 9 9 7 5 4
5 1 1 2 3 2 4 2 4 4 2 2 4 5 5 5 7 6 8 11 10 8 8 8 17 24 24 26 32 35 26 25 21 19 17 14 13 12 10 11 11 8 6 5
6 2 2 1 4 2 4 5 3 3 3 5 2 3 9 4 4 3 7 8 7 7 8 9 13 19 24 27 31 28 29 24 20 18 15 13 11 10 10 10 9 8 7 5
2 6 3 2 2 1 2 5 4 4 3 4 1 5 7 4 2 4 6 8 8 7 8 9 12 18 22 28 30 28 27 23 19 16 13 11 10 10 9 8 8 7 6 5
1 5 2 2 2 4 1 3 3 4 2 1 4 7 10 5 5 1 4 2 3 4 5 9 11 17 22 26 28 27 24 20 17 15 13 12 11 11 10 10 9 9 8 7
2 4 1 2 0 1 4 2 1 2 2 4 5 5 7 6 7 2 0 4 4 4 6 7 10 17 21 24 23 22 20 19 17 15 14 13 12 12 12 11 11 10 9 7
1 2 5 3 4 3 2 1 1 1 4 3 2 6 6 5 4 7 6 3 4 6 6 6 9 17 21 21 20 19 19 19 18 16 16 15 15 14 14 13 13 11 9 8
1 3 4 9 1 2 2 3 5 3 3 2 2 7 1 4 7 6 7 6 5 6 6 6 11 17 18 18 18 19 19 19 18 18 18 18 18 17 16 15 13 11 10 8
3 2 4 7 4 2 2 4 3 2 3 5 4 6 1 4 4 1 6 6 6 6 7 6 9 12 17 17 18 19 20 20 20 22 22 21 20 18 16 15 12 10 8 6
1 3 6 5 6 3 4 4 4 4 2 4 7 8 9 6 5 5 4 4 6 6 6 5 6 9 14 17 19 21 22 23 25 25 24 22 19 17 15 13 9 7 4 3
2 4 4 7 10 5 9 11 8 8 7 7 10 9 2 7 7 7 6 6 6 6 6 6 6 7 16 19 21 25 26 27 27 25 22 20 18 15 12 9 6 4 3 4
1 4 2 6 6 5 7 10 9 8 6 9 8 21 9 8 3 5 11 11 9 7 7 6 7 12 17 24 26 28 28 26 24 23 21 18 15 12 9 6 4 3 4 5
5 3 1 5 5 8 7 6 5 5 6 6 8 11 4 5 7 7 8 11 11 10 9 10 10 15 22 26 30 29 26 24 22 21 18 15 11 8 6 3 3 4 6 7
4 3 3 4 6 2 6 3 3 6 6 8 8 7 5 5 4 5 7 11 10 11 11 10 15 20 25 27 26 26 24 22 20 18 15 11 8 5 3 2 4 5 7 9
4 3 2 2 2 7 6 2 4 1 5 3 5 7 2 1 2 4 6 7 12 13 14 19 24 28 27 28 27 25 22 20 19 16 12 8 5 2 2 4 5 7 9 10
4 2 3 1 2 4 3 2 2 2 4 2 3 3 4 2 1 4 5 6 8 16 21 25 28 30 30 29 27 25 21 19 17 13 9 5 2 1 3 5 7 8 9 10
3 2 6 4 4 8 7 4 4 1 5 5 3 5 6 4 4 3 5 5 12 20 23 27 29 28 30 28 26 23 20 17 14 10 6 3 0 3 5 6 8 8 9 13
9 9 5 3 3 8 7 3 6 6 2 3 4 5 7 7 3 3 4 7 11 16 21 26 25 25 27 25 23 20 17 14 11 7 4 1 2 4 6 9 8 9 11 13
3 7 6 11 8 4 7 7 5 5 5 5 4 6 6 6 6 6 6 7 10 19 21 26 28 28 23 22 21 19 16 13 9 5 1 1 3 5 6 7 9 10 13 13
4 4 4 3 7 13 9 5 5 7 7 6 5 6 7 7 7 6 6 7 9 17 21 25 28 23 21 18 16 14 13 10 6 3 2 3 5 5 7 8 9 12 14 14
6 7 5 9 16 7 7 7 10 8 6 6 6 7 9 8 8 9 7 8 14 18 20 25 23 22 22 17 14 12 10 7 5 3 3 5 7 9 10 10 12 13 13 14
8 16 9 17 19 11 6 6 5 8 9 11 8 5 6 8 11 8 8 14 18 19 22 21 22 24 20 16 13 10 8 6 5 4 5 6 9 10 11 13 16 13 14 15
Wind_Direction
355 56 192 240 222 170 177 198 331 277 245 151 217 242 234 206 166 204 211 205 210 207 200 197 205 203 197 190 187 188 184 186 182 177 173 172 174 179 177 175 168 165 149 132
11 347 239 216 208 227 259 310 289 285 266 168 168 256 282 182 211 209 225 217 219 184 194 183 197 193 193 187 189 187 190 191 190 189 183 184 181 185 187 186 182 171 158 141
171 273 323 154 333 39 209 184 237 216 348 253 119 294 249 227 212 224 223 226 205 202 199 188 192 194 187 184 187 187 192 194 192 191 187 184 182 183 191 191 189 179 162 146
284 328 15 18 338 55 289 205 320 286 133 213 154 255 275 214 220 216 236 208 203 197 193 169 177 191 191 188 189 188 188 194 189 194 197 198 195 191 204 204 194 180 161 152
269 347 3 357 276 352 238 13 327 319 163 92 325 83 270 144 219 226 237 237 218 210 187 176 177 187 190 193 188 187 182 192 190 194 202 202 201 202 193 198 189 178 171 165
254 316 187 282 300 222 305 329 46 62 71 18 224 143 279 216 214 223 229 237 224 212 191 168 163 171 179 193 190 178 175 188 191 192 193 198 202 210 197 183 179 184 178 166
328 290 312 53 328 349 69 53 353 360 6 219 200 73 242 250 233 236 272 282 255 192 165 151 147 155 167 179 187 175 172 180 184 188 197 202 202 202 186 181 186 187 182 170
25 332 193 189 178 278 270 153 157 210 211 265 77 238 247 222 259 279 263 266 241 187 158 159 154 157 163 175 179 174 173 172 178 183 187 187 189 188 185 180 176 182 170 155
306 278 274 222 188 132 33 220 170 112 6 20 242 291 302 205 240 302 357 64 87 101 126 133 128 141 154 167 174 172 167 168 173 176 174 169 169 177 166 157 150 145 141 138
262 305 253 285 66 266 154 290 31 6 216 259 284 275 240 269 254 209 15 102 100 101 105 109 118 134 156 166 164 164 167 169 167 164 162 156 160 157 148 142 138 135 131 127
243 140 287 351 202 202 140 200 306 142 153 199 286 268 217 255 264 217 216 180 136 119 118 116 116 135 145 149 155 159 163 163 160 159 155 152 146 141 138 136 131 126 121 113
284 170 269 233 285 246 174 262 152 131 238 227 175 273 248 286 297 210 190 179 147 135 131 125 127 136 144 150 156 160 158 158 158 155 148 142 139 138 134 128 121 117 112 103
166 280 323 338 11 15 241 226 225 72 115 214 172 262 337 334 360 228 180 182 168 147 135 133 132 137 145 149 151 151 154 150 148 146 144 141 139 135 126 121 117 112 105 92
163 180 200 220 235 184 254 221 196 176 158 212 218 277 282 302 250 215 207 177 165 157 145 130 117 124 140 142 143 144 144 148 148 147 143 138 134 130 125 119 113 104 82 41
166 257 191 246 255 243 247 249 219 195 217 216 269 233 240 272 267 215 186 167 163 167 157 152 138 133 140 141 144 146 148 149 147 142 140 134 130 125 120 111 98 77 37 8
150 271 309 287 272 230 264 246 231 230 244 254 268 274 204 228 165 176 186 177 181 181 169 147 135 138 144 147 148 148 146 146 148 141 132 130 127 123 112 100 78 38 2 344
176 185 346 265 330 315 291 230 195 207 208 192 215 254 190 239 246 234 198 188 181 166 164 162 158 155 155 154 153 150 148 146 141 134 131 130 127 119 106 80 23 354 343 336
183 162 176 271 335 307 244 220 227 223 256 220 276 277 259 253 274 260 168 170 170 169 166 161 157 158 160 157 154 148 146 144 140 137 137 137 135 123 96 17 351 341 331 328
191 150 249 251 235 288 294 186 157 164 291 166 252 300 303 62 329 290 197 184 180 178 167 162 165 162 162 159 155 150 149 149 149 147 144 140 134 115 5 339 332 328 320 315
91 67 166 150 230 260 248 177 142 130 287 223 227 225 183 160 356 263 188 161 147 149 153 153 163 163 162 163 160 156 154 155 153 152 148 147 138 346 330 325 323 317 311 309
151 166 210 220 258 282 250 179 154 135 235 187 196 197 174 199 216 277 137 134 151 152 151 156 161 164 169 166 165 159 156 157 155 153 151 151 306 330 321 312 312 313 314 309
175 170 197 147 200 277 160 88 173 205 189 199 215 204 197 213 208 191 160 145 141 138 145 153 152 161 164 166 167 157 156 155 156 159 161 165 333 324 316 313 308 303 302 301
234 198 199 189 208 217 206 196 249 185 168 199 202 227 212 188 196 173 162 147 143 144 141 151 151 154 161 167 172 160 161 165 164 160 165 292 307 307 298 292 297 301 310 309
244 188 215 197 210 241 227 235 225 210 217 200 207 203 182 192 166 156 139 136 136 144 144 148 147 149 154 162 164 165 159 163 165 181 250 278 291 301 301 305 306 306 307 305
205 155 202 258 265 305 254 221 233 229 209 218 201 197 198 163 171 160 154 154 153 149 148 152 150 149 150 150 146 155 162 172 181 210 243 276 295 305 308 308 305 302 294 295
194 229 230 250 259 240 240 218 199 199 211 215 186 196 191 176 166 156 157 159 155 150 150 147 149 151 151 149 156 163 173 184 199 235 271 295 300 303 304 305 304 300 294 293